Date,TemperatureHighF,TemperatureAvgF,TemperatureLowF,DewpointHighF,DewpointAvgF,DewpointLowF,HumidityHigh,HumidityAvg,HumidityLow,PressureMaxIn,PressureMinIn,WindSpeedMaxMPH,WindSpeedAvgMPH,GustSpeedMaxMPH,PrecipitationSumIn
2013-2-1,30,24,19,9,4,0,58,41,33,0.00,40.00,48,20,68,0.00
2013-2-2,37,26,11,1,-3,-8,44,29,14,0.00,40.00,39,22,51,0.00
2013-2-3,43,24,6,0,-5,-10,46,29,13,0.00,40.00,30,8,39,0.00
2013-2-4,39,25,11,4,-4,-11,39,28,16,0.00,40.00,18,8,34,0.00
2013-2-5,48,30,16,15,9,0,64,41,25,0.00,40.00,23,9,35,0.00
2013-2-6,40,25,10,15,10,3,73,54,27,0.00,40.00,22,8,37,0.00
2013-2-7,39,21,3,9,-1,-10,67,42,13,0.00,40.00,21,7,31,0.00
2013-2-8,37,20,0,18,4,-7,77,53,28,0.00,40.00,21,9,50,0.00
2013-2-9,31,19,7,19,7,-6,85,61,35,0.00,40.00,30,11,43,0.00
2013-2-10,26,14,10,6,-2,-8,82,50,26,0.00,40.00,29,10,46,4.50
2013-2-11,26,8,-8,6,-1,-14,83,68,30,0.00,40.00,12,4,58,0.10
2013-2-12,21,9,-5,-2,-6,-12,73,51,35,0.00,40.00,30,16,43,0.00
2013-2-13,31,19,10,7,3,-3,65,49,32,0.00,40.00,34,17,62,0.00
2013-2-14,29,19,9,9,3,-2,66,50,34,0.00,40.00,25,12,37,0.00
2013-2-15,22,15,10,9,4,-1,78,62,45,0.00,40.00,28,12,109,0.00
2013-2-16,35,21,14,11,2,-7,56,44,28,0.00,40.00,35,12,91,0.00
2013-2-17,40,22,2,12,-4,-17,76,33,15,0.00,40.00,24,8,36,0.00
2013-2-18,22,13,-6,3,-6,-21,67,44,31,0.00,40.00,30,13,43,0.00
2013-2-19,40,14,-9,0,-10,-22,54,36,15,0.00,40.00,28,-2,109,0.00
2013-2-20,40,19,6,19,6,-7,82,60,25,0.00,40.00,16,6,45,0.00
2013-2-21,28,16,6,13,8,-3,84,68,39,0.00,40.00,21,7,27,0.00
2013-2-22,26,13,6,3,-2,-9,65,51,30,0.00,40.00,20,8,29,0.00
2013-2-23,38,18,6,12,3,-8,83,52,33,0.00,40.00,22,9,37,0.00
2013-2-24,21,13,0,12,4,-7,85,69,50,0.00,40.00,25,10,109,0.10
2013-2-25,28,14,3,3,-2,-7,70,49,26,0.00,40.00,30,17,54,0.00
2013-2-26,20,14,8,3,0,-5,60,52,41,0.00,40.00,26,16,39,0.00
2013-2-27,24,12,3,-1,-5,-9,60,47,29,0.00,40.00,27,14,34,0.00
2013-2-28,25,15,6,11,0,-8,83,52,33,0.00,40.00,38,19,52,0.00